Simultaneous Nadir Overpasses (SNOs) Predictions

Prediction of SNOs between LANDSAT-8 and NPP Satellite Orbit:

Table of predicted SNOs for the next 14.0 days since TLE Epoch: 1/3/2015
Index Date (LANDSAT-8) Time (LANDSAT-8) Lat,Lon (LANDSAT-8) SZA (LANDSAT-8 ) Date (NPP) Time (NPP) Lat,Lon (NPP) SZA (NPP ) Distance(km) Time Diff (sec)
1 01/03/2015 17:28:29 71.06, -84.32 93.79 01/03/2015 17:27:17 71.09, -85.07 93.84 27.22 72
2 01/03/2015 18:18:03 -70.73, 82.81 86.54 01/03/2015 18:17:54 -70.76, 82.80 86.52 2.69 9
3 01/03/2015 19:07:30 70.63,-109.71 93.36 01/03/2015 19:08:38 70.63,-109.68 93.35 0.92 68
4 01/06/2015 09:45:02 70.78, 31.13 93.23 01/06/2015 09:44:02 70.81, 31.18 93.26 3.22 60
5 01/06/2015 10:34:31 -70.73,-161.31 86.83 01/06/2015 10:34:44 -70.74,-161.39 86.82 2.68 13
6 01/06/2015 11:24:09 70.02, 5.29 92.48 01/06/2015 11:25:17 70.03, 7.03 92.45 66.13 68
7 01/09/2015 02:01:30 70.79, 147.02 92.90 01/09/2015 02:00:52 70.80, 146.98 92.91 1.85 38
8 01/09/2015 02:51:00 -70.69, -45.50 87.21 01/09/2015 02:51:33 -70.67, -45.50 87.23 1.93 33
9 01/11/2015 17:28:18 -71.57, 96.50 86.74 01/11/2015 17:27:11 -71.63, 94.01 86.60 87.68 67
10 01/11/2015 18:17:58 70.75, -97.16 92.47 01/11/2015 18:17:40 70.74, -97.15 92.46 1.70 18
11 01/11/2015 19:07:28 -70.65, 70.32 87.64 01/11/2015 19:08:22 -70.66, 70.30 87.64 1.33 54
12 01/14/2015 09:44:59 -70.89,-148.71 87.84 01/14/2015 09:43:47 -70.90,-148.95 87.81 8.87 72
13 01/14/2015 10:34:27 70.72, 18.68
